Wind_Speed
9 10 9 9 9 9 8 7 6 7 7 7 5 5 4 4 5 5 5 5 4 4 3 4 3 3 2 2 1 1 1 1 2 2 3 3 4 4 4 5 6 6 6 6 7 6 7 7 7
8 9 9 8 8 8 7 7 6 7 7 6 6 6 5 5 5 5 5 6 6 5 5 5 5 4 4 4 4 3 3 3 3 3 4 4 4 4 5 5 6 6 6 6 6 6 6 6 6
8 9 9 8 8 6 7 7 6 6 6 7 7 7 7 7 7 8 8 7 7 7 8 7 7 7 7 7 6 6 5 5 5 5 5 5 6 6 6 6 6 6 6 6 6 5 5 5 5
7 8 7 8 8 7 7 7 6 6 7 8 9 9 9 9 9 10 10 9 9 9 10 10 9 10 10 9 9 9 9 8 8 8 7 7 7 8 7 7 7 7 7 7 6 6 5 5 5
7 7 7 8 9 7 7 7 7 8 9 9 10 10 10 11 11 11 11 10 11 12 12 12 12 12 11 11 11 11 12 11 11 11 10 10 10 9 9 9 8 8 7 7 7 6 6 5 5
7 8 9 9 9 8 8 8 9 10 10 10 11 12 12 13 13 14 13 13 13 13 13 14 14 14 15 15 14 14 15 14 14 14 13 13 12 12 11 11 11 10 9 9 8 8 7 6 6
8 9 10 10 10 10 10 10 10 11 11 12 12 13 14 14 15 16 16 16 16 16 16 17 16 16 17 17 18 18 18 18 18 17 17 16 15 14 14 13 13 12 11 11 10 9 8 7 7
9 10 11 11 11 12 13 13 13 14 14 15 15 16 16 17 17 18 18 18 18 18 18 18 19 19 19 19 20 21 21 22 21 21 20 19 19 18 17 16 15 14 13 13 12 11 10 9 8
10 11 11 12 13 15 15 16 16 17 17 17 18 19 19 19 20 20 20 21 21 22 22 22 21 21 22 23 24 24 24 24 24 24 23 22 22 21 21 20 18 17 16 15 14 13 12 11 10
11 13 13 14 16 17 17 18 18 19 19 20 21 21 21 21 22 22 22 22 23 24 24 25 25 25 25 26 27 26 26 27 27 26 25 24 24 24 23 22 22 21 20 18 17 16 15 13 12
12 13 14 15 17 18 19 19 20 20 21 22 22 22 23 23 23 24 24 25 25 25 26 26 27 28 28 29 29 30 29 29 29 29 28 27 27 27 25 25 24 24 23 22 20 19 18 16 14
13 14 15 16 18 18 19 20 21 23 23 22 22 22 22 22 23 24 25 25 26 27 27 28 28 29 31 32 33 33 33 32 32 31 31 31 30 30 29 27 26 26 25 25 23 22 21 19 18
14 14 15 17 18 19 21 22 22 22 22 22 22 23 23 24 25 26 27 28 29 29 30 30 30 31 32 33 34 35 35 35 35 35 35 33 32 32 32 31 29 28 27 27 26 25 23 22 21
15 15 16 17 19 20 21 22 22 22 22 22 22 23 24 26 27 27 28 28 29 30 31 31 32 32 32 33 34 35 36 37 37 36 37 36 34 34 33 32 31 30 29 28 28 27 26 25 23
15 16 17 18 19 20 21 21 21 21 22 23 23 24 25 26 27 28 28 29 29 30 32 32 32 32 32 33 33 34 35 36 37 38 38 37 36 36 36 34 32 31 31 30 29 28 28 27 26
15 16 17 18 19 20 21 21 22 22 22 23 24 24 25 25 26 27 27 28 29 30 30 31 31 31 32 32 32 32 33 34 36 37 38 39 38 38 37 36 35 34 32 31 31 30 30 30 29
16 16 18 18 19 19 20 21 21 21 22 23 23 24 24 25 26 27 27 28 28 28 29 29 29 29 29 29 29 30 31 32 34 35 37 38 39 39 39 38 36 35 35 34 32 32 31 31 31
16 17 18 18 18 19 19 19 20 21 21 22 23 23 24 24 25 26 26 26 26 27 27 27 27 27 26 26 26 27 28 29 31 33 35 36 38 40 39 39 38 37 35 35 35 34 33 31 31
16 17 17 18 18 18 18 19 20 20 20 21 22 22 23 24 24 24 24 24 24 25 25 25 24 24 24 24 25 26 26 27 28 30 32 34 35 38 39 39 39 39 38 36 35 35 35 33 33
16 16 17 17 17 17 18 18 18 18 18 19 21 21 22 22 22 23 23 23 23 24 24 23 23 23 22 23 23 23 24 24 24 26 28 30 32 35 37 38 39 40 39 39 38 36 35 34 33
15 15 16 16 17 17 17 16 16 16 17 18 19 20 20 21 22 22 23 23 23 24 24 23 22 22 21 21 21 21 21 21 21 22 23 25 28 31 33 35 37 39 40 40 40 39 37 35 34
13 14 15 15 15 15 14 14 14 14 16 17 18 20 21 22 22 23 23 23 23 24 23 22 21 21 20 19 19 19 18 18 18 19 20 22 24 27 30 31 34 37 39 39 39 39 38 37 36
12 13 13 13 12 12 12 12 13 14 15 16 18 20 21 22 23 23 23 23 23 23 23 22 20 19 19 18 17 17 16 16 16 16 18 19 21 23 26 28 31 33 36 37 39 39 38 37 36
10 11 11 10 10 10 10 11 12 14 15 16 18 20 21 22 22 23 23 23 23 23 23 23 21 20 19 18 17 16 15 14 14 14 15 15 17 19 22 26 28 30 32 35 37 37 38 39 38
8 9 9 9 8 9 10 11 12 13 14 16 18 20 21 21 22 22 23 23 23 23 24 23 22 21 20 18 17 16 14 13 12 12 12 12 13 16 19 22 25 28 30 32 34 35 37 38 38
6 7 7 7 7 8 8 10 12 13 15 16 18 19 20 20 21 23 23 24 24 24 24 24 23 22 21 19 18 16 14 13 12 11 10 10 10 11 14 17 19 23 26 29 32 33 35 35 36
4 5 5 6 6 7 8 10 11 13 15 16 18 18 19 20 21 22 23 24 24 24 24 24 24 24 22 21 20 18 16 14 13 11 10 10 10 10 11 13 15 18 22 25 27 29 32 34 34
2 3 4 4 5 6 8 9 11 12 14 16 17 18 20 21 22 22 23 23 24 24 24 24 24 24 23 22 21 19 18 16 14 13 11 10 8 8 9 9 12 15 18 22 24 26 28 30 31
0 2 3 4 6 7 8 9 10 12 14 16 17 18 19 21 22 23 23 23 24 24 24 25 25 25 24 23 22 21 20 18 16 15 12 10 8 7 7 8 9 11 14 16 19 21 23 25 27
2 2 3 4 6 7 8 9 10 12 14 15 17 18 19 21 22 23 23 23 24 24 24 25 25 25 24 24 23 22 21 20 19 17 14 12 10 9 8 7 8 9 10 12 14 17 20 22 24
Wind_Direction
42 35 40 43 43 42 38 38 43 48 45 38 29 22 13 7 3 353 341 335 329 329 327 328 319 316 314 306 291 267 223 198 197 206 214 223 226 232 239 246 254 264 271 275 278 281 288 291 293
26 26 35 40 36 38 33 29 35 35 28 21 13 7 2 358 351 344 329 320 315 309 302 299 296 292 291 286 283 282 276 266 256 249 247 245 244 246 253 256 261 267 271 277 280 283 289 293 298
14 22 30 30 28 26 24 24 29 24 14 7 359 352 347 345 339 329 319 306 304 299 293 288 284 282 280 277 272 273 272 270 267 263 259 256 254 257 259 260 265 267 267 272 277 280 287 293 297
5 18 23 22 16 13 12 13 18 8 1 357 349 341 337 334 329 321 312 298 293 290 287 283 281 280 277 275 275 272 271 268 266 264 261 259 258 260 262 262 265 265 265 269 273 275 281 286 290
356 5 2 2 360 355 356 357 355 352 351 347 339 331 327 324 321 315 310 304 296 289 282 279 273 273 273 273 274 273 271 268 267 265 263 261 260 260 260 261 262 262 261 263 267 269 274 280 284
336 340 341 348 342 340 339 341 340 339 338 334 328 321 319 316 312 307 305 300 292 289 287 285 279 272 270 272 272 273 271 267 265 264 263 261 260 259 259 259 260 259 259 259 261 264 267 272 275
324 328 330 333 331 330 328 328 328 328 325 321 318 313 311 309 305 301 296 291 287 285 283 281 280 279 276 272 270 269 269 268 265 262 260 259 258 258 258 259 259 258 259 259 258 259 261 264 267
310 315 320 322 321 320 320 320 320 319 318 315 312 308 305 301 297 293 290 286 284 282 281 279 281 279 277 275 273 270 268 266 264 263 261 258 257 257 257 257 257 257 257 258 258 257 256 257 260
301 306 311 313 315 313 315 315 314 315 314 311 308 305 302 299 295 291 287 284 281 280 279 278 277 276 276 275 273 273 270 267 266 262 260 258 257 258 256 255 255 255 255 255 256 255 254 253 254
297 301 304 306 309 310 311 313 313 312 311 309 306 303 300 297 294 290 286 284 281 280 278 277 275 275 273 271 272 272 270 267 264 263 262 261 260 259 256 255 254 253 254 254 254 254 252 251 251
294 297 302 303 306 308 309 311 311 310 309 307 305 302 299 296 293 290 288 285 283 280 278 276 275 273 271 270 269 268 268 269 265 262 260 261 261 259 254 255 255 253 253 253 252 253 251 249 249
293 300 303 304 305 307 308 309 309 309 310 309 306 303 300 298 296 294 292 290 287 284 282 278 275 271 269 269 268 267 267 265 264 264 262 261 259 258 255 255 255 251 250 250 251 251 251 248 247
294 299 301 304 306 306 307 308 310 311 311 311 309 306 304 302 300 297 294 292 290 287 284 281 279 275 272 269 267 266 265 263 261 261 261 260 257 256 254 253 253 250 248 248 249 249 249 246 245
292 297 300 302 304 307 308 311 312 314 314 314 312 309 306 304 302 300 297 295 293 290 287 285 283 280 276 272 269 266 264 263 261 259 258 257 256 254 253 253 251 249 248 248 249 248 248 245 243
291 297 301 303 306 309 311 314 316 317 317 316 314 312 309 306 304 302 301 299 296 294 292 289 286 284 280 276 272 269 266 263 261 259 257 255 253 252 251 251 250 249 248 248 246 247 247 245 242
292 297 300 304 307 309 313 316 318 318 317 316 315 314 312 310 308 306 305 303 302 299 297 294 291 288 285 280 276 272 268 265 261 258 256 254 252 251 250 250 248 248 246 247 247 246 244 243 242
290 294 299 304 308 312 316 319 320 320 320 319 318 317 316 315 313 312 310 309 307 305 303 300 296 294 290 286 281 276 272 267 262 258 255 253 251 250 249 247 246 244 243 243 244 245 244 242 241
288 295 302 309 314 316 319 320 322 323 324 323 322 322 321 320 318 316 315 314 312 310 308 305 302 299 295 291 287 282 277 271 265 260 256 253 250 248 246 245 243 242 241 241 240 241 241 241 240
290 299 305 312 317 320 322 323 325 327 327 326 327 326 326 325 323 323 322 321 319 317 314 311 307 303 299 295 291 288 282 277 271 264 258 254 251 247 245 243 241 240 238 239 239 239 240 240 240
292 302 310 315 320 322 324 326 329 330 331 331 332 332 332 332 332 331 331 329 327 326 323 319 314 310 306 302 297 293 289 283 276 269 261 255 251 247 245 243 240 238 237 238 238 238 238 238 239
297 306 312 316 320 323 326 330 333 335 336 336 337 338 340 340 340 339 338 336 335 333 330 326 322 318 313 309 305 299 293 287 281 273 264 259 254 248 245 243 240 238 237 237 236 236 237 237 237
302 308 314 318 323 327 333 335 339 339 339 341 344 346 346 346 346 346 345 342 341 341 339 335 330 326 323 319 315 309 300 293 287 280 271 263 256 250 246 243 240 238 237 237 237 236 237 236 236
306 312 317 323 329 335 340 342 346 344 344 348 351 352 352 351 351 351 351 350 349 348 347 345 341 337 333 329 325 320 313 303 294 285 277 268 260 253 247 244 240 238 237 237 237 237 236 236 236
309 315 323 330 336 344 348 350 352 352 355 357 357 356 356 356 357 358 359 359 358 357 357 356 353 348 344 340 335 329 323 314 304 293 284 275 265 255 249 245 241 239 238 238 238 238 238 237 237
309 319 327 336 344 351 354 358 359 360 1 1 1 0 1 2 4 5 6 7 6 4 3 3 1 358 355 351 347 343 338 329 319 308 293 284 275 264 255 249 244 240 238 238 239 240 239 239 239
311 325 334 344 352 358 2 2 3 5 7 7 5 5 7 8 10 9 10 10 9 8 8 8 8 7 4 3 360 355 350 344 336 325 311 298 289 278 264 253 246 244 241 240 241 241 240 240 239
313 330 345 356 4 7 6 7 9 10 11 11 10 10 10 10 10 10 11 11 11 11 11 11 11 11 11 10 8 7 3 357 350 341 331 317 302 290 276 261 252 247 245 243 243 242 241 240 241
324 343 354 4 10 11 10 12 11 12 14 14 14 13 12 12 13 13 12 13 13 15 15 15 15 14 14 14 13 11 9 6 2 358 351 341 324 304 289 273 261 252 248 246 245 244 243 241 240
355 22 25 25 20 17 16 17 18 17 15 15 14 13 14 14 15 15 15 15 16 17 17 18 18 17 17 17 16 15 15 14 10 6 2 356 345 331 306 283 268 260 255 251 247 245 243 243 240
116 74 46 29 22 18 19 22 19 17 15 14 13 12 12 14 15 16 16 17 18 19 19 19 19 18 18 18 18 18 19 19 18 14 10 4 355 343 330 302 287 276 268 258 249 246 244 243 241
Height
5917 5917 5916 5916 5916 5915 5914 5913 5912 5911 5911 5911 5910 5910 5909 5909 5910 5911 5908 5906 5906 5905 5905 5905 5904 5904 5904 5903 5903 5902 5902 5902 5902 5902 5903 5903 5904 5904 5904 5905 5905 5906 5906 5906 5906 5907 5907 5907 5907
5918 5918 5918 5917 5916 5915 5915 5914 5913 5912 5912 5911 5910 5910 5909 5909 5908 5908 5906 5906 5905 5904 5904 5904 5903 5903 5902 5902 5902 5902 5901 5901 5901 5901 5902 5902 5902 5903 5903 5903 5904 5904 5904 5905 5905 5905 5905 5906 5906
5919 5918 5919 5918 5917 5917 5916 5914 5914 5913 5912 5911 5911 5910 5909 5908 5907 5906 5906 5905 5904 5903 5903 5902 5902 5901 5901 5901 5900 5900 5900 5900 5900 5900 5900 5901 5901 5901 5902 5902 5902 5902 5903 5903 5904 5904 5904 5904 5904
5919 5919 5919 5919 5917 5917 5916 5915 5914 5913 5912 5911 5910 5909 5908 5907 5906 5905 5904 5903 5902 5901 5901 5900 5900 5899 5899 5899 5899 5898 5898 5898 5898 5898 5899 5899 5899 5900 5900 5900 5901 5901 5901 5902 5902 5903 5903 5903 5904
5921 5920 5920 5918 5918 5917 5916 5915 5914 5913 5912 5911 5910 5908 5907 5906 5905 5904 5902 5901 5900 5899 5898 5898 5898 5897 5897 5897 5897 5896 5896 5896 5896 5896 5897 5897 5897 5898 5898 5898 5899 5899 5900 5900 5901 5901 5902 5902 5902
5921 5920 5920 5918 5917 5917 5916 5915 5914 5912 5911 5910 5909 5908 5906 5905 5903 5902 5901 5899 5898 5897 5896 5895 5895 5894 5894 5894 5893 5893 5893 5893 5893 5893 5894 5894 5895 5895 5896 5896 5897 5897 5898 5898 5899 5899 5900 5901 5901
5921 5919 5918 5918 5917 5916 5915 5914 5913 5912 5910 5909 5908 5906 5904 5903 5902 5900 5898 5897 5896 5894 5893 5892 5892 5891 5890 5890 5890 5890 5889 5889 5889 5890 5890 5891 5891 5892 5893 5894 5894 5895 5896 5896 5897 5897 5898 5899 5899
5919 5919 5917 5917 5916 5915 5914 5912 5911 5910 5909 5907 5906 5904 5902 5901 5899 5897 5895 5893 5892 5891 5890 5888 5888 5887 5887 5886 5886 5885 5885 5885 5885 5885 5886 5886 5887 5888 5889 5890 5891 5892 5893 5894 5894 5895 5896 5897 5897
5918 5919 5916 5916 5915 5914 5912 5910 5909 5907 5906 5904 5902 5900 5898 5896 5895 5893 5891 5889 5888 5887 5885 5885 5884 5883 5882 5881 5881 5880 5880 5880 5880 5880 5881 5882 5882 5884 5885 5886 5887 5888 5889 5890 5891 5892 5893 5894 5895
5917 5917 5916 5915 5913 5912 5910 5908 5906 5904 5902 5900 5898 5896 5894 5892 5890 5888 5886 5884 5883 5882 5880 5879 5878 5877 5877 5876 5875 5875 5874 5874 5874 5875 5876 5877 5877 5878 5880 5881 5883 5884 5885 5887 5888 5889 5890 5891 5892
5915 5915 5914 5912 5911 5909 5907 5905 5903 5901 5899 5897 5894 5891 5889 5886 5884 5882 5881 5879 5877 5876 5875 5873 5872 5871 5871 5870 5869 5869 5869 5868 5868 5869 5870 5871 5871 5872 5874 5876 5878 5879 5881 5882 5884 5885 5886 5888 5889
5914 5913 5911 5910 5908 5907 5904 5902 5900 5897 5895 5892 5889 5887 5884 5882 5879 5877 5875 5873 5871 5869 5868 5866 5865 5864 5863 5863 5862 5861 5861 5861 5862 5862 5863 5864 5865 5866 5868 5870 5872 5873 5875 5877 5879 5881 5882 5884 5885
5912 5911 5909 5908 5906 5904 5901 5899 5896 5893 5890 5888 5885 5882 5879 5877 5874 5871 5869 5866 5864 5862 5860 5859 5857 5856 5855 5854 5854 5853 5853 5853 5854 5854 5855 5856 5858 5859 5861 5863 5865 5867 5869 5871 5873 5875 5877 5879 5881
5910 5908 5907 5905 5903 5900 5898 5895 5893 5890 5887 5884 5881 5878 5875 5872 5869 5866 5863 5860 5857 5855 5852 5850 5849 5847 5846 5846 5845 5844 5844 5844 5845 5846 5847 5848 5849 5851 5853 5855 5857 5860 5862 5864 5867 5869 5871 5874 5876
5907 5906 5905 5902 5900 5897 5895 5892 5889 5886 5883 5880 5876 5873 5870 5866 5863 5860 5857 5854 5850 5847 5844 5842 5840 5838 5837 5836 5835 5835 5835 5835 5835 5836 5837 5839 5841 5843 5845 5847 5850 5852 5855 5857 5860 5862 5865 5867 5870
5905 5904 5902 5900 5897 5895 5894 5890 5886 5883 5879 5876 5873 5869 5866 5862 5858 5854 5851 5847 5844 5840 5837 5834 5831 5829 5828 5826 5826 5825 5825 5825 5825 5826 5827 5829 5831 5833 5836 5839 5841 5844 5847 5850 5852 5855 5858 5861 5864
5902 5901 5899 5898 5895 5892 5890 5886 5883 5879 5876 5872 5869 5865 5861 5857 5853 5849 5845 5842 5838 5834 5830 5827 5824 5821 5819 5817 5816 5815 5815 5815 5815 5816 5818 5819 5821 5824 5826 5829 5833 5835 5839 5842 5845 5848 5851 5854 5857
5900 5898 5897 5895 5892 5889 5886 5883 5880 5876 5873 5869 5865 5862 5858 5853 5849 5845 5841 5836 5832 5828 5824 5820 5817 5814 5812 5809 5808 5806 5805 5805 5805 5806 5807 5809 5811 5814 5817 5820 5823 5826 5830 5833 5837 5840 5843 5846 5849
5897 5896 5894 5892 5889 5886 5883 5880 5877 5874 5870 5866 5863 5859 5854 5850 5846 5841 5837 5832 5828 5823 5819 5815 5811 5808 5805 5803 5800 5798 5797 5796 5796 5796 5797 5799 5801 5803 5807 5810 5813 5817 5821 5824 5828 5832 5835 5838 5841
5894 5893 5891 5889 5886 5883 5881 5878 5875 5871 5868 5864 5860 5856 5852 5848 5843 5838 5833 5828 5824 5819 5814 5810 5806 5802 5799 5796 5794 5792 5790 5788 5787 5787 5788 5789 5791 5793 5797 5800 5803 5807 5811 5815 5819 5823 5827 5830 5833
5892 5890 5888 5886 5883 5881 5878 5876 5873 5870 5866 5863 5859 5854 5850 5845 5841 5836 5831 5825 5821 5816 5811 5806 5801 5798 5794 5791 5788 5786 5784 5782 5781 5780 5780 5781 5782 5784 5787 5790 5794 5798 5802 5806 5810 5814 5818 5822 5825
5889 5888 5886 5883 5881 5879 5877 5875 5872 5868 5865 5861 5857 5853 5848 5844 5839 5834 5829 5823 5818 5813 5808 5803 5798 5794 5790 5787 5783 5781 5778 5776 5775 5774 5774 5774 5775 5777 5779 5782 5785 5789 5793 5797 5801 5805 5809 5813 5817
5887 5885 5883 5881 5879 5877 5875 5873 5872 5868 5864 5860 5856 5852 5847 5843 5838 5832 5827 5822 5816 5811 5806 5800 5795 5791 5787 5783 5780 5777 5774 5772 5770 5769 5768 5768 5768 5770 5772 5774 5777 5780 5784 5788 5792 5796 5801 5805 5808
5885 5884 5882 5880 5878 5876 5874 5872 5870 5867 5863 5860 5856 5851 5847 5842 5837 5831 5826 5821 5816 5810 5805 5799 5794 5789 5785 5781 5777 5774 5771 5769 5767 5765 5764 5763 5763 5764 5765 5767 5769 5773 5776 5780 5784 5788 5792 5796 5800
5884 5883 5881 5879 5877 5875 5873 5871 5870 5866 5863 5859 5855 5851 5847 5842 5837 5832 5826 5821 5816 5810 5805 5799 5794 5789 5784 5780 5776 5772 5769 5767 5764 5762 5761 5760 5759 5759 5759 5761 5763 5766 5769 5772 5776 5780 5784 5787 5791
5882 5881 5880 5879 5876 5875 5873 5871 5870 5866 5862 5859 5855 5851 5847 5842 5838 5832 5827 5822 5817 5811 5805 5800 5794 5789 5784 5780 5775 5772 5768 5765 5763 5760 5758 5757 5756 5755 5755 5756 5757 5759 5762 5765 5769 5772 5775 5779 5783
5881 5880 5879 5878 5876 5874 5873 5871 5869 5865 5862 5859 5856 5852 5848 5843 5838 5833 5828 5823 5818 5812 5807 5801 5796 5790 5785 5780 5776 5772 5768 5765 5762 5759 5756 5754 5753 5752 5752 5752 5753 5755 5757 5759 5761 5764 5768 5771 5775
5880 5879 5879 5877 5876 5874 5873 5871 5869 5866 5863 5860 5856 5853 5849 5844 5839 5834 5830 5824 5819 5814 5808 5803 5798 5792 5787 5782 5777 5773 5768 5765 5761 5758 5755 5753 5751 5750 5750 5749 5750 5750 5752 5754 5756 5758 5761 5764 5768
5880 5880 5878 5877 5876 5875 5873 5874 5869 5867 5864 5861 5857 5854 5850 5845 5841 5836 5831 5826 5821 5816 5810 5805 5800 5794 5789 5784 5779 5774 5770 5765 5762 5758 5756 5753 5751 5749 5748 5747 5747 5747 5748 5748 5750 5752 5755 5758 5761
5879 5879 5878 5878 5877 5875 5873 5875 5870 5867 5864 5861 5858 5855 5851 5847 5842 5837 5833 5828 5823 5818 5812 5807 5802 5797 5791 5786 5781 5776 5772 5767 5763 5759 5756 5753 5751 5748 5747 5745 5744 5744 5744 5745 5746 5747 5750 5752 5755